College Park, MD

11:26 AM EDT on June 25, 2017 (GMT -0400)
College Park

Weather History for KCGS - April, 2013

Change the Weather History Date:

Wednesday, April 17, 2013

  Actual Average Record
Temperature  
Mean Temperature 68 °F -  
Max Temperature 78 °F 66 °F 92 °F (1976)
Min Temperature 58 °F 43 °F 28 °F (1950)
Cooling Degree Days 3    
Growing Degree Days 18 (Base 50)    
Moisture  
Dew Point 61 °F    
Average Humidity 78    
Maximum Humidity 100    
Minimum Humidity 56    
Precipitation  
Precipitation 0.00 in - - ()
Sea Level Pressure  
Sea Level Pressure 30.18 in    
Wind  
Wind Speed 2 mph (ENE)    
Max Wind Speed 9 mph    
Max Gust Speed -    
Visibility 9 miles    
Events      
Averages and records for this station are not official NWS values.
T = Trace of Precipitation, MM = Missing Value Source: NWS Daily Summary

Daily Weather History Graph

Daily Weather History Graph

Search for Another Location

Airport or City:

Trip Planner

Search our weather history database for the weather conditions in past years. The results will help you decide how hot, cold, wet, or windy it might be!

Date:

Astronomy

Apr. 17, 2013 Rise Set
Actual Time 6:27 AM EDT 7:47 PM EDT
Civil Twilight 6:00 AM EDT 8:14 PM EDT
Nautical Twilight 5:27 AM EDT 8:48 PM EDT
Astronomical Twilight 4:52 AM EDT 9:23 PM EDT
Moon 11:40 AM EDT (4/17) 1:22 AM EDT (4/17)
Length of Visible Light 14h 14m
Length of Day
13h 19m
Waxing Crescent, 42% of the Moon is Illuminated
Apr 17
Waxing Crescent
Apr 18
First Quarter
Apr 25
Full
May 2
Last Quarter
May 9
New

Hourly Weather History & Observations

Time (EDT) Temp. Dew Point Humidity Pressure Visibility Wind Dir Wind Speed Gust Speed Precip Events Conditions
12:00 AM 68.0 °F 61.2 °F 79% 30.16 in 10.0 mi Calm Calm - N/A   Clear
12:20 AM 68.0 °F 61.3 °F 79% 30.15 in 10.0 mi Calm Calm - N/A   Clear
12:40 AM 67.6 °F 61.2 °F 80% 30.15 in 10.0 mi Calm Calm - N/A   Clear
1:00 AM 67.5 °F 61.2 °F 80% 30.16 in 10.0 mi Calm Calm - N/A   Scattered Clouds
1:20 AM 68.0 °F 61.7 °F 80% 30.20 in 10.0 mi Calm Calm - N/A   Mostly Cloudy
1:40 AM 68.2 °F 61.7 °F 80% 30.20 in 10.0 mi WSW 5.8 mph - N/A   Overcast
2:00 AM 68.0 °F 61.7 °F 80% 30.17 in 10.0 mi SSW 3.5 mph - N/A   Overcast
2:20 AM 67.1 °F 62.6 °F 85% 30.17 in 10.0 mi Calm Calm - N/A   Overcast
2:40 AM 66.6 °F 62.6 °F 87% 30.15 in 10.0 mi Calm Calm - N/A   Scattered Clouds
3:00 AM 64.6 °F 62.8 °F 94% 30.14 in 10.0 mi Calm Calm - N/A   Scattered Clouds
3:20 AM 65.7 °F 62.8 °F 90% 30.13 in 10.0 mi Calm Calm - N/A   Clear
3:40 AM 64.6 °F 62.8 °F 94% 30.12 in 10.0 mi Calm Calm - N/A   Clear
4:00 AM 62.4 °F 61.9 °F 98% 30.12 in 10.0 mi Calm Calm - N/A   Scattered Clouds
4:20 AM 62.4 °F 62.4 °F 100% 30.13 in 10.0 mi Calm Calm - N/A   Scattered Clouds
4:40 AM 61.7 °F 61.7 °F 100% 30.14 in 5.0 mi Calm Calm - N/A   Clear
5:00 AM 61.9 °F 61.9 °F 100% 30.14 in 7.0 mi Calm Calm - N/A   Clear
5:20 AM 60.4 °F 60.4 °F 100% 30.14 in 1.8 mi Calm Calm - N/A   Unknown
5:40 AM 59.9 °F 59.9 °F 100% 30.15 in 1.0 mi Calm Calm - N/A   Unknown
6:00 AM 59.2 °F 59.2 °F 100% 30.16 in 0.5 mi Calm Calm - N/A   Unknown
6:20 AM 59.0 °F 59.0 °F 100% 30.16 in 1.2 mi Calm Calm - N/A   Unknown
6:40 AM 59.0 °F 59.0 °F 100% 30.17 in 2.5 mi Calm Calm - N/A   Clear
7:00 AM 58.1 °F 58.1 °F 100% 30.18 in 0.2 mi Calm Calm - N/A   Unknown
7:20 AM 59.2 °F 59.2 °F 100% 30.19 in 3.0 mi Calm Calm - N/A   Clear
7:40 AM 60.8 °F 60.8 °F 100% 30.19 in 4.0 mi Calm Calm - N/A   Clear
8:00 AM 62.6 °F 62.6 °F 100% 30.19 in 7.0 mi Calm Calm - N/A   Clear
8:20 AM 63.7 °F 63.7 °F 100% 30.19 in 7.0 mi Calm Calm - N/A   Clear
8:40 AM 66.0 °F 63.3 °F 91% 30.18 in 10.0 mi Calm Calm - N/A   Clear
9:00 AM 67.8 °F 63.1 °F 85% 30.18 in 10.0 mi Calm Calm - N/A   Clear
9:20 AM 69.1 °F 63.9 °F 83% 30.18 in 10.0 mi Calm Calm - N/A   Clear
9:40 AM 70.2 °F 63.7 °F 80% 30.19 in 10.0 mi Calm Calm - N/A   Clear
10:00 AM 71.6 °F 63.5 °F 76% 30.19 in 10.0 mi Calm Calm - N/A   Clear
10:20 AM 72.5 °F 63.1 °F 72% 30.19 in 10.0 mi Calm Calm - N/A   Clear
10:40 AM 73.9 °F 63.0 °F 68% 30.19 in 10.0 mi Calm Calm - N/A   Clear
11:00 AM 75.2 °F 62.6 °F 65% 30.19 in 10.0 mi Calm Calm - N/A   Clear
11:20 AM 76.6 °F 62.8 °F 62% 30.19 in 10.0 mi Calm Calm - N/A   Scattered Clouds
12:20 PM 77.0 °F 61.5 °F 59% 30.18 in 10.0 mi NNE 5.8 mph - N/A   Overcast
12:40 PM 77.0 °F 61.3 °F 58% 30.18 in 10.0 mi North 4.6 mph - N/A   Mostly Cloudy
1:00 PM 77.9 °F 61.0 °F 56% 30.17 in 10.0 mi Calm Calm - N/A   Mostly Cloudy
1:20 PM 77.4 °F 61.0 °F 57% 30.17 in 10.0 mi North 4.6 mph - N/A   Overcast
1:40 PM 78.1 °F 61.2 °F 56% 30.17 in 10.0 mi NNE 5.8 mph - N/A   Overcast
2:00 PM 77.7 °F 61.0 °F 56% 30.17 in 10.0 mi North 4.6 mph - N/A   Overcast
2:20 PM 75.6 °F 62.8 °F 64% 30.18 in 10.0 mi North 9.2 mph - N/A   Overcast
2:40 PM 75.4 °F 62.6 °F 64% 30.18 in 10.0 mi NE 9.2 mph - N/A   Overcast
3:00 PM 74.3 °F 62.2 °F 66% 30.18 in 10.0 mi NNE 6.9 mph - N/A   Mostly Cloudy
3:20 PM 72.5 °F 60.8 °F 67% 30.18 in 10.0 mi NE 8.1 mph - N/A   Scattered Clouds
4:00 PM 72.3 °F 59.7 °F 64% 30.19 in 10.0 mi NNE 6.9 mph - N/A   Mostly Cloudy
4:40 PM 72.7 °F 59.0 °F 62% 30.18 in 10.0 mi NE 5.8 mph - N/A   Clear
5:00 PM 72.7 °F 59.0 °F 62% 30.18 in 10.0 mi ENE 5.8 mph - N/A   Clear
5:20 PM 72.5 °F 58.6 °F 62% 30.19 in 10.0 mi East 6.9 mph - N/A   Clear
5:40 PM 72.5 °F 58.6 °F 62% 30.19 in 10.0 mi East 5.8 mph - N/A   Clear
6:00 PM 73.2 °F 58.6 °F 60% 30.18 in 10.0 mi East 6.9 mph - N/A   Clear
6:20 PM 71.8 °F 58.8 °F 64% 30.19 in 10.0 mi East 4.6 mph - N/A   Clear
6:35 PM 71.2 °F 58.5 °F 64% 30.19 in 10.0 mi ENE 4.6 mph - N/A   Clear
7:00 PM 70.9 °F 58.1 °F 64% 30.19 in 10.0 mi East 4.6 mph - N/A   Scattered Clouds
7:20 PM 70.2 °F 57.4 °F 64% 30.20 in 10.0 mi East 5.8 mph - N/A   Overcast
7:40 PM 69.6 °F 56.7 °F 63% 30.20 in 10.0 mi East 4.6 mph - N/A   Overcast
8:00 PM 69.1 °F 56.5 °F 64% 30.21 in 10.0 mi Calm Calm - N/A   Overcast
8:20 PM 68.9 °F 56.7 °F 65% 30.21 in 10.0 mi ESE 4.6 mph - N/A   Overcast
9:00 PM 67.6 °F 57.4 °F 70% 30.22 in 10.0 mi ESE 5.8 mph - N/A   Scattered Clouds
9:20 PM 66.7 °F 58.1 °F 74% 30.23 in 10.0 mi Calm Calm - N/A   Clear
9:35 PM 66.4 °F 57.9 °F 74% 30.23 in 10.0 mi ESE 6.9 mph - N/A   Scattered Clouds
10:00 PM 65.8 °F 58.1 °F 76% 30.23 in 10.0 mi ESE 5.8 mph - N/A   Overcast
10:20 PM 65.1 °F 58.3 °F 78% 30.23 in 10.0 mi ESE 5.8 mph - N/A   Overcast
11:00 PM 64.6 °F 58.6 °F 81% 30.25 in 10.0 mi Calm Calm - N/A   Overcast
11:20 PM 64.6 °F 58.5 °F 80% 30.24 in 10.0 mi Calm Calm - N/A   Overcast
11:40 PM 64.6 °F 57.6 °F 78% 30.25 in 10.0 mi SE 3.5 mph - N/A   Overcast